Date String (YYYY-MM-DD hh:mm:ss) UTC,Instrument flags,Ambient pressure (hPa),Sample flow (lpm),Bypass flow (lpm),Sample temperature (°C),Ambient temperature (°C),ASC tube jacket temperature (°C),LED temperature (°C),Box temperature (°C),Sample RH (%),Span deviation,Mass concentration (μg/m³),Mass concentration (μg/m³),Mass concentration (μg/m³)
DateTimeUTC,F1_M11,P_M11,Q1_M11,Q2_M11,T1_M11,T2_M11,T3_M11,T4_M11,T5_M11,U1_M11,ZSPAN_M11,X0_M11,X2_M11,X1_M11
2022-09-06 01:00:00,,0827.1,4.99,0.00,29.4,27.2,00.0,38.0,31.1,16.8,0000.0,0015.69,0007.10,0005.84
2022-09-06 01:01:00,,0827.0,5.01,0.00,29.4,27.5,00.0,38.0,31.2,16.7,0000.0,0015.78,0007.01,0005.84
2022-09-06 01:02:00,,0827.0,5.01,0.00,29.4,27.8,00.0,38.0,31.3,16.6,0000.0,0015.68,0006.98,0005.84
2022-09-06 01:03:00,,0827.0,5.00,0.00,29.5,28.1,00.0,38.1,31.4,16.6,0000.0,0015.70,0006.96,0005.84
2022-09-06 01:04:00,,0827.2,4.99,0.00,29.5,28.3,00.0,38.1,31.4,16.5,0000.0,0015.40,0006.90,0005.85
2022-09-06 01:05:00,,0827.0,5.00,0.00,29.5,27.9,00.0,38.1,31.4,16.5,0000.0,0015.21,0006.92,0005.86
2022-09-06 01:06:00,,0827.0,5.00,0.00,29.5,26.6,00.0,38.1,31.3,16.6,0000.0,0015.06,0006.88,0005.85
2022-09-06 01:07:00,,0827.0,5.00,0.00,29.5,26.4,00.0,38.1,31.3,16.6,0000.0,0014.93,0006.91,0005.87
2022-09-06 01:08:00,,0826.9,5.00,0.00,29.4,26.7,00.0,38.0,31.2,16.7,0000.0,0015.29,0006.90,0005.88
2022-09-06 01:09:00,,0826.9,4.99,0.00,29.4,27.0,00.0,38.0,31.1,16.7,0000.0,0015.26,0006.87,0005.87
2022-09-06 01:10:00,,0826.9,5.00,0.00,29.4,27.3,00.0,38.0,31.1,16.7,0000.0,0015.40,0006.82,0005.85
2022-09-06 01:11:00,,0827.0,5.01,0.00,29.4,27.7,00.0,38.0,31.2,16.6,0000.0,0014.72,0006.84,0005.85
2022-09-06 01:12:00,,0827.0,5.00,0.00,29.4,27.9,00.0,38.1,31.3,16.5,0000.0,0014.65,0006.88,0005.85
2022-09-06 01:13:00,,0827.0,4.98,0.00,29.5,28.2,00.0,38.1,31.4,16.5,0000.0,0014.67,0006.92,0005.85
2022-09-06 01:14:00,,0827.0,5.01,0.00,29.5,28.3,00.0,38.1,31.5,16.4,0000.0,0013.81,0006.95,0005.86
2022-09-06 01:15:00,,0827.0,4.99,0.00,29.5,27.4,00.0,38.1,31.4,16.4,0000.0,0013.78,0006.99,0005.85
2022-09-06 01:16:00,,0827.1,5.01,0.00,29.5,26.5,00.0,38.1,31.2,16.4,0000.0,0013.79,0007.01,0005.85
2022-09-06 01:17:00,,0827.0,4.99,0.00,29.4,26.6,00.0,38.1,31.2,16.3,0000.0,0013.82,0007.01,0005.86
2022-09-06 01:18:00,,0827.0,5.01,0.00,29.4,26.8,00.0,38.0,31.1,16.3,0000.0,0014.78,0006.98,0005.84
2022-09-06 01:19:00,,0827.0,5.00,0.00,29.4,27.1,00.0,38.0,31.1,16.5,0000.0,0015.14,0007.02,0005.84
2022-09-06 01:20:00,,0827.0,5.00,0.00,29.4,27.5,00.0,38.0,31.2,16.2,0000.0,0016.03,0007.06,0005.85
2022-09-06 01:21:00,,0827.1,5.01,0.00,29.4,27.7,00.0,38.0,31.2,16.1,0000.0,0015.60,0007.05,0005.85
2022-09-06 01:22:00,,0827.0,5.01,0.00,29.4,28.0,00.0,38.1,31.3,16.1,0000.0,0015.22,0007.07,0005.87
2022-09-06 01:23:00,,0826.9,4.98,0.00,29.5,28.2,00.0,38.1,31.4,16.0,0000.0,0015.70,0007.05,0005.88
2022-09-06 01:24:00,,0827.1,5.00,0.00,29.5,28.1,00.0,38.1,31.4,16.0,0000.0,0016.02,0007.08,0005.88
2022-09-06 01:25:00,,0827.1,4.98,0.00,29.5,26.8,00.0,38.1,31.3,16.0,0000.0,0016.62,0007.09,0005.88
2022-09-06 01:26:00,,0827.1,5.01,0.00,29.4,26.3,00.0,38.1,31.2,16.1,0000.0,0017.70,0007.09,0005.88
2022-09-06 01:27:00,,0827.0,5.00,0.00,29.4,26.6,00.0,38.0,31.2,16.2,0000.0,0018.47,0007.06,0005.89
2022-09-06 01:28:00,,0827.2,5.00,0.00,29.4,26.9,00.0,38.0,31.0,16.2,0000.0,0019.40,0007.06,0005.89
2022-09-06 01:29:00,,0827.2,5.00,0.00,29.3,27.2,00.0,38.0,31.1,16.2,0000.0,0019.03,0007.10,0005.90
2022-09-06 01:30:00,,0826.9,5.00,0.00,29.4,27.5,00.0,38.0,31.2,16.2,0000.0,0019.25,0007.06,0005.92
2022-09-06 01:31:00,,0826.9,5.02,0.00,29.4,27.8,00.0,38.0,31.3,16.1,0000.0,0019.55,0006.99,0005.91
2022-09-06 01:32:00,,0827.0,4.98,0.00,29.4,28.1,00.0,38.0,31.3,16.4,0000.0,0019.83,0007.00,0005.92
2022-09-06 01:33:00,,0827.0,5.00,0.00,29.5,28.3,00.0,38.1,31.4,16.8,0000.0,0020.03,0007.02,0005.93
2022-09-06 01:34:00,,0827.0,5.01,0.00,29.5,28.2,00.0,38.1,31.5,17.2,0000.0,0019.40,0007.03,0005.94
2022-09-06 01:35:00,,0827.0,4.98,0.00,29.5,26.9,00.0,38.1,31.3,17.3,0000.0,0020.17,0007.03,0005.96
2022-09-06 01:36:00,,0827.0,5.01,0.00,29.4,26.3,00.0,38.1,31.2,17.2,0000.0,0019.95,0007.06,0005.97
2022-09-06 01:37:00,,0827.0,5.01,0.00,29.4,26.5,00.0,38.1,31.2,17.2,0000.0,0019.18,0007.10,0006.00
2022-09-06 01:38:00,,0827.0,5.00,0.00,29.3,26.7,00.0,38.0,31.0,17.2,0000.0,0019.10,0007.18,0006.04
2022-09-06 01:39:00,,0827.0,5.00,0.00,29.3,27.1,00.0,38.0,31.0,17.2,0000.0,0019.34,0007.23,0006.05
2022-09-06 01:40:00,,0827.0,5.00,0.00,29.3,27.4,00.0,38.0,31.1,17.2,0000.0,0018.92,0007.24,0006.07
2022-09-06 01:41:00,,0827.0,5.01,0.00,29.4,27.7,00.0,38.0,31.2,17.2,0000.0,0019.06,0007.28,0006.08
2022-09-06 01:42:00,,0827.0,4.98,0.00,29.4,28.0,00.0,38.0,31.3,17.2,0000.0,0018.26,0007.34,0006.11
2022-09-06 01:43:00,,0827.0,5.01,0.00,29.5,28.2,00.0,38.1,31.4,17.3,0000.0,0018.44,0007.37,0006.14
2022-09-06 01:44:00,,0827.1,4.99,0.00,29.5,28.4,00.0,38.1,31.5,17.5,0000.0,0018.45,0007.40,0006.15
2022-09-06 01:45:00,,0827.0,4.99,0.00,29.5,27.8,00.0,38.1,31.4,17.4,0000.0,0018.52,0007.44,0006.18
2022-09-06 01:46:00,,0827.0,5.00,0.00,29.5,26.5,00.0,38.1,31.2,17.2,0000.0,0018.14,0007.41,0006.19
2022-09-06 01:47:00,,0827.0,5.00,0.00,29.4,26.2,00.0,38.1,31.1,17.3,0000.0,0018.35,0007.39,0006.21
2022-09-06 01:48:00,,0827.0,4.99,0.00,29.4,26.5,00.0,38.0,31.1,17.3,0000.0,0018.29,0007.36,0006.23
2022-09-06 01:49:00,,0827.1,5.00,0.00,29.3,26.8,00.0,38.0,31.0,17.4,0000.0,0017.95,0007.34,0006.23
2022-09-06 01:50:00,,0827.0,5.00,0.00,29.3,27.2,00.0,38.0,31.1,17.5,0000.0,0017.57,0007.33,0006.26
2022-09-06 01:51:00,,0827.2,5.00,0.00,29.3,27.5,00.0,38.0,31.2,17.5,0000.0,0018.50,0007.34,0006.29
2022-09-06 01:52:00,,0827.0,5.01,0.00,29.4,27.7,00.0,38.0,31.2,17.5,0000.0,0019.28,0007.32,0006.31
2022-09-06 01:53:00,,0827.4,4.98,0.00,29.4,28.0,00.0,38.0,31.3,17.8,0000.0,0019.70,0007.39,0006.32
2022-09-06 01:54:00,,0827.1,5.00,0.00,29.4,28.2,00.0,38.1,31.4,17.9,0000.0,0020.13,0007.49,0006.34
2022-09-06 01:55:00,,0827.0,5.01,0.00,29.5,28.4,00.0,38.1,31.5,17.9,0000.0,0020.24,0007.46,0006.37
2022-09-06 01:56:00,,0827.1,4.99,0.00,29.5,28.1,00.0,38.1,31.5,18.0,0000.0,0020.42,0007.46,0006.40
2022-09-06 01:57:00,,0827.1,5.00,0.00,29.5,26.8,00.0,38.1,31.3,17.9,0000.0,0020.75,0007.51,0006.43
2022-09-06 01:58:00,,0827.2,5.00,0.00,29.4,26.2,00.0,38.1,31.2,17.5,0000.0,0020.52,0007.59,0006.44
2022-09-06 01:59:00,,0827.1,4.99,0.00,29.4,26.4,00.0,38.0,31.2,17.2,0000.0,0020.44,0007.66,0006.45
